Regional Weather Roundup
Issued by NWS

Home | Current Version | Previous Version | Text Only | Print | Product List | Glossary Off
Versions: 1 2 3 4 5 6 7 8 9 10 11 12 13 14 15 16 17 18 19 20 21 22 23 24 25 26 27 28 29 30 31 32 33 34 35 36 37 38 39 40 41 42 43 44 45 46 47 48 49 50

000
ASUS43 KDMX 032104
RWRIA

WEATHER ROUNDUP FOR IOWA
NATIONAL WEATHER SERVICE DES MOINES IA
  ISSUED BY NWS QUAD CITIES IA IL
300 PM CST TUE MAR 03 2015

NOTE: "FAIR" INDICATES FEW OR NO CLOUDS BELOW 12,000 FEET WITH NO
SIGNIFICANT WEATHER AND/OR OBSTRUCTIONS TO VISIBILITY.

* - THESE STATIONS ARE NOT NWS STATIONS...THUS NOT UNDER NWS
QUALITY CONTROL.  THEY ALSO DO NOT REPORT WEATHER SUCH
AS PRECIPITATION OR FOG.

IAZ001>003-012>014-020>022-031>034-043>046-032200-
   NORTHWEST IOWA

CITY           SKY/WX    TMP DP  RH WIND       PRES   REMARKS
CARROLL *      CLOUDY    28  23  80 NW25G32   29.83R WCI  14
CHEROKEE *     MOCLDY    25  16  68 NW23G33   29.87S WCI  10
DENNISON *     CLOUDY    28  21  74 N22G30    29.85R WCI  15
LE MARS *      PTSUNNY   25  16  68 NW21G31   29.93R WCI  10
ORANGE CITY *  MOSUNNY   25  14  63 NW21G30   29.88R WCI  10
SHELDON *      FLURRIES  21  14  73 NW24G37   29.86R WCI   4
SIOUX CITY     FLURRIES  28  13  53 N29G41    29.91R WCI  12
SPENCER        PTSUNNY   25  15  66 NW28G33   29.84R WCI   9
STORM LAKE *   MIX PCPN  25  18  74 NW26G33   29.85R WCI   9
$$

IAZ055>058-069>071-079>083-090>094-032200-
   SOUTHWEST IOWA

CITY           SKY/WX    TMP DP  RH WIND       PRES   REMARKS
ATLANTIC *     CLOUDY    32  27  80 NW24G31   29.84R WCI  19
AUDUBON *      PTSUNNY   30  25  80 NW23G29   29.85R WCI  17
CLARINDA *     CLOUDY    34  28  80 NW18G26   29.86R WCI  23
COUNCIL BLFS * CLOUDY    30  23  74 NW22G30   29.85R WCI  17
CRESTON *      CLOUDY    34  28  80 NW21G28   29.80R WCI  22
HARLAN *       CLOUDY    30  27  86 NW25G32   29.89R WCI  16
LAMONI         CLOUDY    34  29  82 NW20G25   29.80R WCI  23
RED OAK *      CLOUDY    32  27  80 NW21G28   29.86R WCI  20
SHENANDOAH *   CLOUDY    34  27  75 NW21G26   29.88R WCI  22
$$

IAZ047>049-059>061-072>074-084-032200-
   CENTRAL IOWA

CITY           SKY/WX    TMP DP  RH WIND       PRES   REMARKS
AMES           CLOUDY    34  25  69 N25G33    29.78R WCI  21
ANKENY *       CLOUDY    36  27  69 NW15      29.79R WCI  26
BOONE *        CLOUDY    30  27  86 NW23G30   29.77R WCI  17
CHARITON *     CLOUDY    36  28  75 NW16G23   29.79R WCI  26
DES MOINES     CLOUDY    35  26  69 NW12      29.79R WCI  27
GRINNELL *     CLOUDY    32  27  83 NW17G25   29.76R WCI  21
KNOXVILLE *    CLOUDY    34  28  80 NW16      29.77R WCI  23
MARSHALLTOWN   CLOUDY    33  26  75 NW21      29.75R WCI  21
NEWTON *       CLOUDY    34  27  75 NW17      29.77R WCI  23
PELLA *        CLOUDY    34  31  89 NW16      29.79R WCI  24
PERRY *          N/A     33  28  83 NW20G28   29.81R WCI  21
$$

IAZ004>006-015-016-023>025-035-036-032200-
   NORTH CENTRAL IOWA

CITY           SKY/WX    TMP DP  RH WIND       PRES   REMARKS
ALGONA *       PTSUNNY   25 N/A N/A NW26G40   29.80R WCI   9
CLARION *      CLOUDY    27  23  86 NW26      29.79R WCI  11
ESTHERVILLE    CLOUDY    22  16  78 NW23G35   29.83R WCI   6
FORT DODGE *   CLOUDY    28  19  69 NW15G22   29.82R WCI  17
FOREST CITY *  CLOUDY    27  19  74 NW22G29   29.76R WCI  12
WEBSTER CITY * CLOUDY    28  28 100 NW26G33   29.79R WCI  13
IOWA FALLS *   CLOUDY    30  25  81 NW23      29.77R WCI  17
$$

IAZ007>011-017>019-026>030-037>042-050>054-066-032200-
   NORTHEAST IOWA

CITY           SKY/WX    TMP DP  RH WIND       PRES   REMARKS
CEDAR RAPIDS   CLOUDY    32  27  81 NW21G29   29.72R WCI  20
CHARLES CITY * CLOUDY    30  27  86 NW20      29.72R WCI  18
CLINTON *      CLOUDY    34  30  86 W15       29.71R WCI  24
DECORAH *      CLOUDY    30  25  80 NW13G23   29.67R WCI  20
DUBUQUE        CLOUDY    32  28  85 NW16G28   29.67R WCI  21
MONTICELLO *   CLOUDY    32  30  93 NW20G25   29.70R WCI  20
OELWEIN *      CLOUDY    30  27  86 NW16      29.71R WCI  19
WATERLOO       CLOUDY    32  25  75 NW15G33   29.73R WCI  22
$$

IAZ064-065-067-068-078-032200-
   EAST CENTRAL IOWA

CITY           SKY/WX    TMP DP  RH WIND       PRES   REMARKS
DAVENPORT      CLOUDY    33  29  85 W17       29.70S WCI  22
IOWA CITY      CLOUDY    34  28  79 NW17G24   29.75R WCI  23
MT. PLEASANT * CLOUDY    35  30  81 W15       29.76R WCI  26
MUSCATINE *    CLOUDY    36  32  87 W16G22    29.74R WCI  26
QUAD CITIES    CLOUDY    35  30  82 W13       29.70R WCI  26
$$

IAZ062-063-075>077-085>089-095>099-032200-
   SOUTHEAST IOWA

CITY           SKY/WX    TMP DP  RH WIND       PRES   REMARKS
BURLINGTON     CLOUDY    36  32  85 NW12      29.75R WCI  28
FAIRFIELD *    CLOUDY    36  30  80 NW14      29.76R WCI  27
FORT MADISON * CLOUDY    36  32  87 NW14G23   29.77R WCI  27
KEOKUK *       CLOUDY    37  34  87 NW13G21   29.76R WCI  29
OSKALOOSA *    CLOUDY    33  29  85 NW15      29.77R WCI  23
CENTERVILLE *  MOCLDY    36  32  87 NW14      29.79R WCI  27
OTTUMWA        CLOUDY    35  30  82 NW13      29.75R WCI  26
WASHINGTON *   CLOUDY    34  34 100 NW14G22   29.75R WCI  24
$$

ABBREVIATIONS USED IN REMARKS
   TC - TEMPERATURES IN CELSIUS
  WCI - WIND CHILL INDEX
   HX - HEAT INDEX
  VSB - VISIBILITY
$$


USA.gov is the U.S. government's official web portal to all federal, state and local government web resources and services.